Regional Weather Roundup
Issued by NWS Charleston, WV

Home | Current Version | Previous Version | Text Only | Print | Product List | Glossary Off
Versions: 1 2 3 4 5 6 7 8 9 10 11 12 13 14 15 16 17 18 19 20 21 22 23 24 25 26 27 28 29 30 31 32 33 34 35 36 37 38 39 40 41 42 43 44 45 46 47 48 49 50

000
ASUS41 KRLX 301910
RWRRLX
West Virginia Regional Weather Roundup
National Weather Service Charleston WV
300 PM EDT SAT AUG 30 2014

Note: "fair" indicates few or no clouds below 12,000 feet with no
significant weather and/or obstructions to visibility.

WVZ003-302000-
Northern Panhandle of West Virginia

CITY           SKY/WX    TMP DP  RH WIND       PRES   REMARKS
WHEELING       MOSUNNY   85  69  58 SW9       30.08F
$$

WVZ009-302000-
Northwest West Virginia

CITY           SKY/WX    TMP DP  RH WIND       PRES   REMARKS
PARKERSBURG    MOSUNNY   89  64  43 SW10G21   30.09F
$$

WVZ006-302000-
Western West Virginia

CITY           SKY/WX    TMP DP  RH WIND       PRES   REMARKS
HUNTINGTON     MOSUNNY   86  68  54 S8        30.08F
$$

WVZ015-302000-
West Central West Virginia

CITY           SKY/WX    TMP DP  RH WIND       PRES   REMARKS
CHARLESTON     MOSUNNY   89  64  43 SW12      30.10F
$$

WVZ031-302000-
North Central West Virginia

CITY           SKY/WX    TMP DP  RH WIND       PRES   REMARKS
CLARKSBURG     MOSUNNY   86  65  49 SW8       30.11F
MORGANTOWN     MOSUNNY   90  66  45 VRB7G16   30.12F
$$

WVZ035-042-045-302000-
South Central West Virginia

CITY           SKY/WX    TMP DP  RH WIND       PRES   REMARKS
BECKLEY        PTSUNNY   83  60  45 S8        30.22F
BLUEFIELD      PTSUNNY   82  61  48 SW6       30.25F
LEWISBURG      MOSUNNY   88  58  36 SW9       30.22S
$$

WVZ047-302000-
Northern Mountains of West Virginia

CITY           SKY/WX    TMP DP  RH WIND       PRES   REMARKS
ELKINS         PTSUNNY   85  63  47 W3        30.17F
$$

WVZ052-302000-
Eastern Panhandle of West Virginia

CITY           SKY/WX    TMP DP  RH WIND       PRES   REMARKS
MARTINSBURG    MOSUNNY   80  66  62 SE8       30.15F
PETERSBURG     NOT AVBL
$$



USA.gov is the U.S. government's official web portal to all federal, state and local government web resources and services.